When you browse on this site, cookies collect data to enhance your experience and personalize the content and advertising you see.
Visit our Privacy Policy to learn more. By continuing to use the site, you agree to this use of cookies and data.

Stündliche Wetter Aabenraa

Heute, 19 September, Samstag

Zeit Temperatur Niederschläge Wind Luftdruck Luftfeuchtigkeit
00:00 +10°C° 0 mm 1 m/S 766 mmHg 74%
01:00 +10°C° 0 mm 1 m/S 765 mmHg 74%
02:00 +10°C° 0 mm 1 m/S 765 mmHg 74%
03:00 +10°C° 0 mm 1 m/S 765 mmHg 74%
04:00 +10°C° 0 mm 1 m/S 765 mmHg 73%
05:00 +10°C° 0 mm 1 m/S 764 mmHg 72%
06:00 +10°C° 0 mm 1 m/S 764 mmHg 70%
07:00 +10°C° 0 mm 1 m/S 764 mmHg 68%
08:00 +12°C° 0 mm 1 m/S 764 mmHg 64%
09:00 +14°C° 0 mm 1 m/S 764 mmHg 59%
10:00 +15°C° 0 mm 1 m/S 764 mmHg 54%
11:00 +16°C° 0 mm 1 m/S 764 mmHg 52%
12:00 +18°C° 0 mm 1 m/S 764 mmHg 49%
13:00 +18°C° 0 mm 2 m/S 764 mmHg 47%
14:00 +18°C° 0 mm 2 m/S 763 mmHg 48%
15:00 +18°C° 0 mm 2 m/S 763 mmHg 50%
16:00 +18°C° 0 mm 2 m/S 762 mmHg 52%
17:00 +16°C° 0 mm 1 m/S 762 mmHg 55%
18:00 +15°C° 0 mm 1 m/S 762 mmHg 58%
19:00 +13°C° 0 mm 1 m/S 762 mmHg 61%
20:00 +13°C° 0 mm 1 m/S 762 mmHg 61%
21:00 +13°C° 0 mm 1 m/S 762 mmHg 61%
22:00 +12°C° 0 mm 1 m/S 762 mmHg 61%
23:00 +12°C° 0 mm 1 m/S 762 mmHg 62%

Morgen, 20 September, Sonntag

Zeit Temperatur Niederschläge Wind Luftdruck Luftfeuchtigkeit
00:00 +12°C° 0 mm 1 m/S 762 mmHg 63%
01:00 +11°C° 0 mm 1 m/S 762 mmHg 65%
02:00 +11°C° 0 mm 1 m/S 762 mmHg 66%
03:00 +10°C° 0 mm 0 m/S 761 mmHg 68%
04:00 +9°C° 0 mm 0 m/S 761 mmHg 69%
05:00 +10°C° 0 mm 0 m/S 761 mmHg 69%
06:00 +10°C° 0 mm 0 m/S 761 mmHg 69%
07:00 +11°C° 0 mm 1 m/S 762 mmHg 69%
08:00 +13°C° 0 mm 1 m/S 761 mmHg 64%
09:00 +15°C° 0 mm 1 m/S 761 mmHg 59%
10:00 +18°C° 0 mm 1 m/S 761 mmHg 54%
11:00 +19°C° 0 mm 1 m/S 761 mmHg 52%
12:00 +20°C° 0 mm 1 m/S 761 mmHg 50%
13:00 +21°C° 0 mm 1 m/S 761 mmHg 48%
14:00 +21°C° 0 mm 1 m/S 761 mmHg 50%
15:00 +21°C° 0 mm 1 m/S 760 mmHg 53%
16:00 +21°C° 0 mm 1 m/S 760 mmHg 56%
17:00 +18°C° 0 mm 2 m/S 760 mmHg 65%
18:00 +16°C° 0 mm 2 m/S 760 mmHg 74%
19:00 +14°C° 0 mm 2 m/S 760 mmHg 83%
20:00 +14°C° 0 mm 2 m/S 760 mmHg 86%
21:00 +13°C° 0 mm 1 m/S 760 mmHg 89%
22:00 +13°C° 0 mm 1 m/S 760 mmHg 92%
23:00 +12°C° 0 mm 1 m/S 760 mmHg 92%

übermorgen, 21 September, Montag

Zeit Temperatur Niederschläge Wind Luftdruck Luftfeuchtigkeit
00:00 +12°C° 0 mm 1 m/S 760 mmHg 92%
01:00 +12°C° 0 mm 1 m/S 760 mmHg 92%
02:00 +12°C° 0 mm 1 m/S 759 mmHg 93%
03:00 +11°C° 0 mm 1 m/S 759 mmHg 93%
04:00 +11°C° 0 mm 1 m/S 759 mmHg 93%
05:00 +11°C° 0 mm 1 m/S 759 mmHg 93%
06:00 +11°C° 0 mm 0 m/S 759 mmHg 93%
07:00 +11°C° 0 mm 0 m/S 759 mmHg 92%
08:00 +13°C° 0 mm 0 m/S 759 mmHg 85%
09:00 +14°C° 0 mm 0 m/S 759 mmHg 78%
10:00 +16°C° 0 mm 0 m/S 759 mmHg 71%
11:00 +19°C° 0 mm 1 m/S 759 mmHg 66%
12:00 +20°C° 0 mm 1 m/S 759 mmHg 61%
13:00 +21°C° 0 mm 2 m/S 758 mmHg 57%
14:00 +20°C° 0 mm 2 m/S 758 mmHg 58%
15:00 +20°C° 0 mm 2 m/S 757 mmHg 59%
16:00 +20°C° 0 mm 3 m/S 757 mmHg 60%
17:00 +18°C° 0 mm 2 m/S 757 mmHg 69%
18:00 +16°C° 0 mm 2 m/S 756 mmHg 78%
19:00 +14°C° 0 mm 2 m/S 756 mmHg 86%
20:00 +13°C° 0 mm 2 m/S 756 mmHg 86%
21:00 +13°C° 0 mm 1 m/S 756 mmHg 86%
22:00 +12°C° 0 mm 1 m/S 755 mmHg 85%
23:00 +12°C° 0 mm 1 m/S 755 mmHg 82%

22 September, Dienstag

Zeit Temperatur Niederschläge Wind Luftdruck Luftfeuchtigkeit
00:00 +12°C° 0 mm 2 m/S 755 mmHg 79%
01:00 +10°C° 0 mm 2 m/S 754 mmHg 76%
02:00 +10°C° 0 mm 2 m/S 754 mmHg 77%
03:00 +10°C° 0 mm 2 m/S 753 mmHg 77%
04:00 +9°C° 0 mm 2 m/S 752 mmHg 78%
05:00 +10°C° 0 mm 2 m/S 752 mmHg 79%
06:00 +10°C° 0 mm 2 m/S 752 mmHg 80%
07:00 +10°C° 0 mm 2 m/S 752 mmHg 81%
08:00 +13°C° 0 mm 2 m/S 751 mmHg 76%
09:00 +14°C° 0 mm 3 m/S 751 mmHg 71%
10:00 +18°C° 0 mm 3 m/S 751 mmHg 65%
11:00 +18°C° 0 mm 3 m/S 750 mmHg 63%
12:00 +19°C° 0 mm 3 m/S 750 mmHg 62%
13:00 +20°C° 0 mm 4 m/S 749 mmHg 60%
14:00 +20°C° 0 mm 4 m/S 748 mmHg 61%
15:00 +20°C° 0 mm 4 m/S 748 mmHg 62%
16:00 +19°C° 0 mm 5 m/S 747 mmHg 64%
17:00 +17°C° 0 mm 4 m/S 747 mmHg 72%
18:00 +15°C° 0 mm 4 m/S 747 mmHg 80%
19:00 +13°C° 0 mm 3 m/S 746 mmHg 88%
20:00 +13°C° 0 mm 3 m/S 746 mmHg 89%
21:00 +13°C° 0 mm 4 m/S 746 mmHg 90%
22:00 +13°C° 0 mm 4 m/S 746 mmHg 91%
23:00 +13°C° 0 mm 4 m/S 745 mmHg 91%

23 September, Mittwoch

Zeit Temperatur Niederschläge Wind Luftdruck Luftfeuchtigkeit
00:00 +13°C° 0 mm 4 m/S 745 mmHg 92%
01:00 +13°C° 0 mm 4 m/S 744 mmHg 92%
02:00 +13°C° 0 mm 4 m/S 744 mmHg 91%
03:00 +13°C° 0 mm 4 m/S 744 mmHg 91%
04:00 +13°C° 0 mm 4 m/S 743 mmHg 90%
05:00 +13°C° 0.2 mm 4 m/S 743 mmHg 89%
06:00 +13°C° 0.2 mm 4 m/S 743 mmHg 88%
07:00 +13°C° 0.2 mm 4 m/S 743 mmHg 86%
08:00 +13°C° 1.1 mm 3 m/S 743 mmHg 89%
09:00 +13°C° 1.1 mm 3 m/S 742 mmHg 92%
10:00 +15°C° 1.1 mm 2 m/S 742 mmHg 95%
11:00 +14°C° 0.4 mm 3 m/S 742 mmHg 93%
12:00 +14°C° 0.4 mm 3 m/S 742 mmHg 92%
13:00 +14°C° 0.4 mm 4 m/S 741 mmHg 91%
14:00 +14°C° 0.2 mm 5 m/S 741 mmHg 90%
15:00 +15°C° 0.2 mm 6 m/S 741 mmHg 89%
16:00 +15°C° 0.2 mm 8 m/S 740 mmHg 89%
17:00 +13°C° 0.3 mm 8 m/S 740 mmHg 85%
18:00 +13°C° 0.3 mm 8 m/S 740 mmHg 82%
19:00 +12°C° 0.3 mm 9 m/S 741 mmHg 79%
20:00 +12°C° 0 mm 8 m/S 741 mmHg 80%
21:00 +11°C° 0 mm 7 m/S 742 mmHg 81%
22:00 +10°C° 0 mm 7 m/S 743 mmHg 82%
23:00 +10°C° 0.1 mm 6 m/S 743 mmHg 84%

24 September, Donnerstag

Zeit Temperatur Niederschläge Wind Luftdruck Luftfeuchtigkeit
00:00 +9°C° 0.1 mm 5 m/S 744 mmHg 85%
01:00 +10°C° 0.1 mm 4 m/S 744 mmHg 87%
02:00 +9°C° 0 mm 3 m/S 744 mmHg 87%
03:00 +9°C° 0 mm 3 m/S 744 mmHg 87%
04:00 +9°C° 0 mm 3 m/S 744 mmHg 88%
05:00 +9°C° 0 mm 3 m/S 744 mmHg 86%
06:00 +9°C° 0 mm 3 m/S 744 mmHg 85%
07:00 +9°C° 0 mm 3 m/S 743 mmHg 83%
08:00 +10°C° 0 mm 4 m/S 743 mmHg 80%
09:00 +10°C° 0 mm 6 m/S 743 mmHg 76%
10:00 +11°C° 0 mm 7 m/S 742 mmHg 73%
11:00 +12°C° 0 mm 7 m/S 742 mmHg 75%
12:00 +14°C° 0 mm 6 m/S 741 mmHg 77%
13:00 +16°C° 0 mm 6 m/S 741 mmHg 79%
14:00 +15°C° 1 mm 6 m/S 740 mmHg 83%
15:00 +15°C° 1 mm 5 m/S 739 mmHg 87%
16:00 +14°C° 1 mm 5 m/S 739 mmHg 91%
17:00 +14°C° 1.8 mm 5 m/S 738 mmHg 92%
18:00 +14°C° 1.8 mm 6 m/S 738 mmHg 94%
19:00 +14°C° 1.8 mm 6 m/S 738 mmHg 95%
20:00 +14°C° 0.4 mm 6 m/S 738 mmHg 94%
21:00 +13°C° 0.4 mm 6 m/S 737 mmHg 92%
22:00 +13°C° 0.4 mm 6 m/S 737 mmHg 90%
23:00 +13°C° 0.2 mm 6 m/S 737 mmHg 91%
Mehr zeigen